Theta_e
330 332 333 337 340 340 340 339 339 339 339 339 337 335 334 335 331 328 325 323 322 320
333 332 336 338 341 340 339 339 338 338 338 337 335 333 331 329 328 327 325 324 323 320
335 337 338 340 340 339 338 340 338 337 337 335 335 332 330 327 328 326 324 324 323 321
336 340 341 341 340 338 339 338 338 338 335 335 332 330 328 327 327 325 324 324 323 322
338 340 340 341 340 339 339 338 339 337 334 333 332 329 328 327 328 325 324 324 324 322
338 340 338 337 339 339 339 338 337 335 333 332 331 329 328 328 327 326 325 325 324 323
337 335 334 335 335 336 336 335 333 333 332 333 333 332 330 327 326 325 326 326 326 325
334 334 334 334 332 331 331 330 330 329 330 330 332 331 329 329 323 324 324 325 326 324
334 333 333 332 330 328 327 326 327 328 330 328 327 312 315 324 324 324 324 322 320 319
333 331 330 331 328 324 324 325 325 327 325 323 318 305 309 314 325 324 321 319 319 320
331 329 329 327 325 323 325 326 326 322 318 317 313 302 305 312 324 323 322 321 319 319
330 328 325 323 323 323 324 323 321 320 317 315 311 301 303 315 322 322 321 322 321 321
330 327 323 323 323 322 322 322 324 320 317 312 313 301 302 315 321 320 322 322 321 310
329 326 326 324 323 323 323 323 323 320 317 315 312 307 300 305 322 321 320 320 318 312
Wind_Speed
10 8 7 8 8 8 9 8 7 6 7 7 7 6 6 5 5 5 4 6 4 3
11 9 10 10 10 8 8 7 9 8 7 7 7 8 7 5 5 5 5 5 5 3
12 11 9 10 11 11 9 10 9 7 7 8 8 7 7 5 5 6 3 4 6 3
10 10 10 10 11 12 12 11 11 10 9 10 8 7 6 6 6 6 5 4 5 5
10 9 10 10 11 12 12 11 11 10 10 10 9 7 7 7 6 6 6 6 6 6
9 10 10 10 11 12 12 11 11 11 11 10 10 8 7 7 7 7 6 6 6 6
10 11 11 11 11 12 11 12 11 10 9 9 9 8 7 6 6 6 7 6 6 6
11 12 13 12 11 10 9 10 10 9 7 7 8 6 7 6 6 6 6 4 4 4
15 15 14 11 10 9 8 8 8 8 9 7 4 6 11 9 7 6 7 6 4 3
15 15 12 12 11 8 8 8 8 9 9 7 6 6 10 11 6 7 6 6 5 4
15 14 12 11 9 8 8 10 9 8 7 7 4 5 8 9 7 6 6 6 6 5
14 12 11 10 9 6 8 7 6 7 8 8 5 5 6 8 6 6 6 5 5 5
13 12 10 10 8 5 7 7 8 7 6 8 7 4 4 6 5 6 5 3 4 6
13 11 11 9 6 7 8 8 7 8 5 6 6 5 2 7 5 5 5 4 3 3
Wind_Direction
193 187 181 171 165 173 171 173 167 165 165 158 153 142 153 145 144 157 162 174 170 175
193 179 182 169 162 165 161 161 166 159 158 141 140 137 141 137 150 156 166 174 175 163
187 178 161 156 158 163 158 154 152 151 139 134 139 139 140 142 151 154 164 163 168 169
172 163 157 162 161 163 154 150 154 153 137 142 144 148 143 157 157 163 165 164 165 185
158 143 150 164 160 156 151 159 153 143 139 147 151 154 158 166 163 162 178 182 180 190
142 146 153 149 149 149 146 143 144 139 147 155 162 163 175 166 162 183 184 185 183 187
139 141 141 136 132 139 144 141 138 146 153 161 154 168 166 167 185 181 177 192 189 178
133 134 125 125 123 125 130 133 141 145 151 156 151 168 159 166 160 153 154 158 152 181
133 126 123 121 123 124 116 128 134 139 141 132 129 160 147 143 143 145 146 144 136 145
134 133 138 134 140 123 128 128 125 125 120 121 124 147 136 142 143 144 146 147 147 150
134 136 136 134 132 127 128 133 128 122 124 119 116 123 133 146 135 134 149 149 154 150
137 139 132 129 135 120 123 118 124 139 133 132 139 109 129 132 132 133 142 151 153 141
137 137 135 134 127 132 129 128 137 130 135 137 133 132 127 140 124 127 127 118 126 116
141 140 137 133 129 128 122 126 128 123 124 122 133 143 127 155 143 143 141 156 130 116